Location: Dalton
(42.4737°N, 73.1662°W)
Time: 12:37:49
(UTC+00:00)

ACS3 Solar Sail - Pass Details

Date: 26 September 2024
Orbit: 961 x 1035 km, 97.4° (Epoch: 08 October)

Event Time Altitude Azimuth Distance (km) Brightness Sun altitude
Exits shadow 01:09:55 41° 179° (S) 1,466 2.5 -27.0°
Maximum altitude 01:12:22 78° 258° (WSW) 1,063 1.9 -27.4°
Drops below altitude 10° 01:18:50 10° 346° (NNW) 2,842 4.7 -28.5°
Sets 01:21:21 0° 347° (NNW) 3,792 5.4 -28.9°
